User: anonymous   Login
Location: Strawberry
(45.6646°N, 111.9596°W)
Time: 09:02:59
(UTC+00:00)
Language:

STARS - Orbit

View from above orbital plane
View from above orbital plane
View from above satellite
View from above satellite

Ground track
Ground track

The orbit data is extracted from the following two-line orbital elements,

1 33498U 09002G   22329.67749559  .00001405  00000-0  19060-3 0  9997
2 33498  98.1506 224.2762 0012000  90.7810 269.4776 14.80498927745280
Epoch (UTC): 25 November 2022 16:15:35
Eccentricity: 0.0012000
inclination: 98.1506°
perigee height: 619 km
apogee height: 636 km
right ascension of ascending node: 224.2762°
argument of perigee: 90.7810°
revolutions per day: 14.80498927
mean anomaly at epoch: 269.4776°
orbit number at epoch: 74528

The dashed part of the orbit path shows where the satellite is in the earth's shadow,  

DLR